[[{"header":{"parameterUnit":"m.s-1","parameterCategory":1,"la1":30.2991,"la2":30.254,"lo1":-89.0895,"lo2":-89.0444,"dy":0.0017,"dx":0.0017,"nx":28,"ny":28,"refTime":"2025-08-10T03:00:00:Z","depth":0,"parameterNumber":2,"parameterNumberName":"U-component_of_WINDS"},"data":[0,0,0,0,0,0,0,0,0,0,0,0,0,0,0,0,0,0,0,0,0,0,0,0,0,0,0,0,0,0,0,0,0,0,0,0,0,0,0,0,0,0,0,0,0,0,0,0,0,0,0,0,0,0,0,0,0,0,-2.4768,-2.4768,0,-2.4788,-2.4788,-2.4788,-2.4715,-2.4712,-2.471,-2.4708,-2.4733,-2.4736,-2.4739,0,0,0,0,0,0,0,0,0,0,0,0,0,-2.467,-2.4673,-2.4768,-2.4768,-2.4768,-2.4788,-2.4788,-2.4788,-2.4715,-2.4712,-2.471,-2.4707,-2.4732,-2.4736,-2.4739,0,0,0,0,0,0,0,0,0,0,0,0,0,-2.4704,-2.4673,-2.4768,-2.4734,-2.4731,-2.4788,-2.4788,-2.4788,-2.4716,-2.4712,-2.4709,-2.4706,-2.4731,-2.4735,-2.4739,-2.4831,0,0,-2.4752,-2.4753,0,0,0,0,0,0,0,0,-2.4702,-2.4708,-2.4739,-2.4736,-2.4733,-2.4745,-2.4763,-2.4803,-2.4716,-2.4722,-2.4708,-2.4704,-2.474,-2.4743,-2.4754,-2.4832,-2.4833,-2.4752,-2.4755,-2.4756,-2.4757,0,0,0,0,0,0,0,-2.47,-2.4706,-2.4776,-2.4739,-2.4736,-2.4719,-2.472,-2.477,-2.4749,-2.4721,-2.4716,-2.4719,-2.4738,-2.4751,-2.4755,-2.4833,-2.4752,-2.4756,-2.4758,-2.476,-2.4988,-2.4992,0,0,0,0,0,0,-2.4701,-2.4705,-2.4775,-2.4776,-2.4709,-2.4724,-2.4725,-2.4745,-2.4749,-2.4746,-2.4722,-2.4715,-2.4745,-2.475,-2.4755,-2.4863,-2.4756,-2.476,-2.4762,-2.4985,-2.4989,-2.4993,0,0,0,0,0,0,-2.47,-2.4708,-2.4774,-2.4739,-2.4746,-2.4729,-2.4752,-2.4747,-2.4759,-2.4749,-2.4745,-2.4738,-2.4743,-2.4749,-2.4812,-2.4863,-2.4762,-2.4766,-2.498,-2.4986,-2.4991,-2.508,0,0,0,0,0,0,-2.4697,-2.4708,-2.4742,-2.474,-2.4748,-2.483,-2.4755,-2.475,-2.4766,-2.4758,-2.4763,-2.4761,-2.4741,-2.4807,-2.4816,-2.4867,-2.4769,-2.4976,-2.4983,-2.4989,-2.5072,-2.5087,-2.51,0,0,0,0,0,-2.4694,-2.4766,-2.4744,-2.4752,-2.479,-2.4833,-2.4838,-2.4812,-2.477,-2.4805,-2.4798,-2.4761,-2.4856,-2.4814,-2.4824,-2.4876,-2.4972,-2.4981,-2.4989,-2.5066,-2.5084,-2.51,0,0,0,0,0,0,-2.4775,-2.4766,-2.474,-2.4814,-2.4825,-2.482,-2.4863,-2.4832,-2.4856,-2.4847,-2.4815,-2.4817,-2.4886,-2.4887,-2.4841,-2.4966,-2.4907,-2.4918,-2.4962,-2.498,-2.4994,-2.4992,-2.4772,0,0,0,0,0,-2.4801,-2.4836,-2.4826,-2.4893,-2.4899,-2.488,-2.4898,-2.4877,-2.4888,-2.4892,-2.489,-2.4903,-2.4935,-2.4958,-2.4987,-2.5072,-2.5073,-2.5113,-2.5127,-2.5139,-2.5149,-2.5195,-2.5213,-2.502,-2.502,-2.5019,0,0,-2.4857,-2.4856,-2.488,-2.4909,-2.4915,-2.4953,-2.4885,-2.4928,-2.4956,-2.4899,-2.4958,-2.4957,-2.497,-2.5044,-2.5077,-2.5048,-2.5202,-2.5149,-2.5159,-2.5162,-2.5205,-2.5224,-2.524,-2.5025,-2.5024,-2.5023,0,0,-2.4976,-2.4979,-2.5035,-2.5042,-2.5051,-2.5038,-2.5052,-2.5052,-2.5049,-2.5107,-2.5066,-2.51,-2.5157,-2.5167,-2.518,-2.5305,-2.5273,-2.5316,-2.539,-2.5436,-2.5451,-2.5464,-2.551,-2.5527,-2.5326,-2.5326,-2.5326,0,-2.5044,-2.5098,-2.5068,-2.5113,-2.5128,-2.5077,-2.5135,-2.5143,-2.5163,-2.5175,-2.5141,-2.5212,-2.5216,-2.5293,-2.5324,-2.5336,-2.5351,-2.5315,-2.5451,-2.5464,-2.5476,-2.552,-2.5537,-2.5331,-2.5331,-2.533,-2.533,0,-2.5182,-2.522,-2.5264,-2.5283,-2.5303,-2.5354,-2.5333,-2.5357,-2.5335,-2.5326,-2.5387,-2.5391,-2.5421,-2.5437,-2.5416,-2.5512,-2.5493,-2.5456,-2.5397,-2.55,-2.5541,-2.5557,-2.5339,-2.5337,-2.5335,-2.5334,0,0,-2.5353,-2.5354,-2.5371,-2.5379,-2.5386,-2.5416,-2.5466,-2.5494,-2.5515,-2.5531,-2.5573,-2.5622,-2.5588,-2.5603,-2.5583,-2.5623,-2.5723,-2.558,-2.558,-2.5607,-2.583,-2.5858,-2.5878,-2.5701,-2.5704,-2.5706,-2.5829,0,-2.5471,-2.5555,-2.5529,-2.5614,-2.565,-2.5603,-2.5647,-2.5657,-2.565,-2.5681,-2.5674,-2.571,-2.5662,-2.567,-2.5708,-2.5703,-2.5767,-2.5693,-2.5742,-2.5744,-2.574,-2.5899,-2.5929,-2.6044,-2.5845,-2.5847,-2.5849,0,-2.562,-2.564,-2.5729,-2.573,-2.5744,-2.5784,-2.5808,-2.5837,-2.5849,-2.5841,-2.5858,-2.583,-2.5881,-2.5821,-2.5892,-2.5843,-2.5861,-2.5862,-2.5866,-2.5869,-2.5803,-2.5908,-2.608,-2.6098,-2.5873,-2.5871,-2.587,0,-2.5737,-2.5786,-2.5846,-2.5854,-2.5857,-2.5887,-2.589,-2.5897,-2.5916,-2.5938,-2.595,-2.5978,-2.5993,-2.6016,-2.5997,-2.5955,-2.6072,-2.601,-2.6069,-2.6069,-2.6095,-2.6094,-2.6274,-2.6107,-2.6106,-2.6106,-2.6106,0,-2.5872,-2.5928,-2.5898,-2.5935,-2.5997,-2.5968,-2.6031,-2.6029,-2.6036,-2.6073,-2.6034,-2.607,-2.6042,-2.6076,-2.6062,-2.6124,-2.6131,-2.6128,-2.6123,-2.6131,-2.6132,-2.6143,-2.6135,-2.6111,-2.6109,-2.6109,-2.6108,0,-2.6013,-2.5995,-2.6057,-2.6055,-2.6056,-2.6102,-2.6101,-2.6136,-2.6126,-2.6174,-2.6183,-2.6169,-2.6207,-2.6191,-2.6231,-2.6221,-2.6301,-2.6285,-2.6297,-2.6293,-2.6353,-2.6348,-2.6547,-2.6572,-2.6388,-2.6389,-2.6391,0,-2.61,-2.6142,-2.6145,-2.6166,-2.6171,-2.6206,-2.6225,-2.6198,-2.622,-2.6236,-2.627,-2.6304,-2.633,-2.6393,-2.6388,-2.6419,-2.6405,-2.6472,-2.6409,-2.6416,-2.6407,-2.6405,-2.641,-2.6485,-2.6487,-2.6489,-2.6491,0,-2.6258,-2.6247,-2.6274,-2.63,-2.6323,-2.6342,-2.6358,-2.6378,-2.6352,-2.6379,-2.6416,-2.6436,-2.6477,-2.6513,-2.654,-2.6545,-2.6515,-2.651,-2.6526,-2.6535,-2.654,-2.6539,-2.6332,-2.6506,-2.6505,-2.6503,-2.6503,-2.6502,-2.6375,-2.641,-2.6418,-2.6451,-2.6459,-2.6475,-2.6508,-2.6503,-2.6533,-2.6564,-2.6547,-2.6591,-2.6603,-2.6636,-2.6646,-2.6681,-2.6655,-2.6677,-2.6683,-2.6689,-2.6697,-2.6534,-2.6686,-2.6686,-2.6685,-2.6685,-2.6685,0,-2.6531,-2.6533,-2.6564,-2.6587,-2.6613,-2.658,-2.6596,-2.6621,-2.666,-2.6673,-2.6699,-2.6743,-2.6778,-2.6775,-2.6807,-2.6836,-2.6824,-2.6846,-2.6844,-2.6846,-2.6718,-2.6702,-2.6856,-2.6856,-2.6856,-2.6856,-2.6856,-2.6856,-2.6615,-2.6674,-2.6664,-2.6728,-2.673,-2.6773,-2.6785,-2.68,-2.681,-2.6861,-2.6888,-2.6886,-2.6893,-2.6926,-2.6956,-2.6955,-2.6969,-2.6997,-2.6991,-2.6872,-2.6855,-2.6838,-2.6823,-2.7,-2.7,-2.7115,-2.7116,-2.7117]},{"header":{"parameterUnit":"m.s-1","parameterCategory":1,"la1":30.2991,"la2":30.254,"lo1":-89.0895,"lo2":-89.0444,"dy":0.0017,"dx":0.0017,"nx":28,"ny":28,"refTime":"2025-08-10T03:00:00:Z","depth":0,"parameterNumber":3,"parameterNumberName":"V-component_of_WINDS"},"data":[0,0,0,0,0,0,0,0,0,0,0,0,0,0,0,0,0,0,0,0,0,0,0,0,0,0,0,0,0,0,0,0,0,0,0,0,0,0,0,0,0,0,0,0,0,0,0,0,0,0,0,0,0,0,0,0,0,0,-2.2543,-2.2542,0,-2.2495,-2.2494,-2.2493,-2.2439,-2.2438,-2.2437,-2.2436,-2.2384,-2.2384,-2.2383,0,0,0,0,0,0,0,0,0,0,0,0,0,-2.2585,-2.2585,-2.2543,-2.2542,-2.2542,-2.2495,-2.2494,-2.2493,-2.2439,-2.2438,-2.2437,-2.2436,-2.2384,-2.2384,-2.2383,0,0,0,0,0,0,0,0,0,0,0,0,0,-2.2555,-2.2585,-2.2543,-2.2509,-2.2505,-2.2495,-2.2494,-2.2493,-2.2439,-2.2438,-2.2437,-2.2435,-2.2385,-2.2384,-2.2383,-2.2401,0,0,-2.238,-2.2379,0,0,0,0,0,0,0,0,-2.2557,-2.2553,-2.2514,-2.2511,-2.2507,-2.2471,-2.249,-2.2462,-2.2439,-2.2464,-2.2436,-2.2435,-2.2414,-2.2411,-2.2404,-2.2399,-2.2396,-2.238,-2.2379,-2.2379,-2.2378,0,0,0,0,0,0,0,-2.2559,-2.2555,-2.2524,-2.2514,-2.2509,-2.2495,-2.2489,-2.2484,-2.2446,-2.2462,-2.2458,-2.2453,-2.2412,-2.2405,-2.2402,-2.2396,-2.238,-2.2379,-2.2378,-2.2378,-2.2402,-2.2403,0,0,0,0,0,0,-2.2566,-2.2557,-2.2525,-2.2522,-2.253,-2.2495,-2.2489,-2.2484,-2.2446,-2.2439,-2.2454,-2.2451,-2.2407,-2.2404,-2.24,-2.2419,-2.2379,-2.2378,-2.2377,-2.24,-2.2402,-2.2403,0,0,0,0,0,0,-2.2568,-2.2564,-2.2527,-2.2539,-2.2533,-2.2496,-2.2491,-2.2484,-2.2477,-2.244,-2.2433,-2.2454,-2.2406,-2.2402,-2.2401,-2.2416,-2.2377,-2.2377,-2.2399,-2.2401,-2.2403,-2.2456,0,0,0,0,0,0,-2.2569,-2.2565,-2.2572,-2.2539,-2.2532,-2.253,-2.2492,-2.2484,-2.2476,-2.2471,-2.2439,-2.2432,-2.2405,-2.2403,-2.24,-2.2414,-2.2376,-2.2397,-2.24,-2.2402,-2.2453,-2.2459,-2.2465,0,0,0,0,0,-2.2571,-2.2589,-2.2573,-2.2569,-2.2541,-2.2531,-2.2527,-2.2496,-2.2477,-2.2484,-2.246,-2.2433,-2.2415,-2.2403,-2.24,-2.2414,-2.2396,-2.2399,-2.2402,-2.245,-2.2458,-2.2465,0,0,0,0,0,0,-2.2623,-2.2584,-2.2566,-2.2573,-2.2556,-2.2522,-2.2529,-2.2506,-2.2492,-2.2488,-2.2449,-2.2442,-2.2446,-2.243,-2.2418,-2.2429,-2.2402,-2.2404,-2.244,-2.2447,-2.2453,-2.2457,-2.2375,0,0,0,0,0,-2.2636,-2.2632,-2.2597,-2.2607,-2.26,-2.2566,-2.256,-2.2538,-2.2518,-2.251,-2.2486,-2.2467,-2.2457,-2.2451,-2.244,-2.245,-2.2442,-2.2458,-2.2464,-2.2469,-2.2471,-2.2475,-2.2481,-2.2412,-2.2412,-2.2412,0,0,-2.2662,-2.264,-2.2639,-2.2617,-2.2601,-2.2597,-2.256,-2.2557,-2.2554,-2.2509,-2.2508,-2.249,-2.2466,-2.2471,-2.2471,-2.2457,-2.2489,-2.2473,-2.2477,-2.2476,-2.2478,-2.2485,-2.2491,-2.2414,-2.2414,-2.2413,0,0,-2.2706,-2.269,-2.2696,-2.2681,-2.2657,-2.2635,-2.2636,-2.2606,-2.2592,-2.259,-2.2557,-2.2551,-2.2535,-2.2519,-2.2508,-2.2547,-2.2522,-2.2545,-2.2577,-2.2581,-2.2586,-2.2591,-2.2604,-2.2609,-2.2547,-2.2547,-2.2547,0,-2.2741,-2.2734,-2.2702,-2.2702,-2.2693,-2.2654,-2.2659,-2.2646,-2.2619,-2.2614,-2.2598,-2.2576,-2.2557,-2.2558,-2.2567,-2.256,-2.256,-2.2548,-2.2588,-2.2592,-2.2596,-2.2608,-2.2613,-2.255,-2.255,-2.2549,-2.2549,0,-2.2778,-2.2774,-2.2782,-2.2758,-2.275,-2.2753,-2.272,-2.2716,-2.2694,-2.2673,-2.2671,-2.2647,-2.263,-2.2628,-2.2607,-2.2625,-2.2617,-2.2595,-2.2567,-2.2606,-2.2617,-2.2621,-2.2554,-2.2553,-2.2552,-2.2552,0,0,-2.2854,-2.2813,-2.2816,-2.2805,-2.2776,-2.2771,-2.2772,-2.2756,-2.2753,-2.2736,-2.2735,-2.2722,-2.2702,-2.269,-2.2666,-2.267,-2.2701,-2.2647,-2.2646,-2.2658,-2.2719,-2.2735,-2.2741,-2.2684,-2.2685,-2.2686,-2.2721,0,-2.2893,-2.2892,-2.2863,-2.287,-2.2866,-2.2828,-2.2829,-2.2811,-2.2791,-2.2783,-2.2761,-2.2752,-2.2727,-2.2719,-2.2721,-2.2697,-2.2713,-2.2694,-2.2682,-2.2682,-2.2688,-2.2747,-2.2764,-2.2798,-2.2725,-2.2725,-2.2726,0,-2.2938,-2.2924,-2.2932,-2.2902,-2.2899,-2.29,-2.2883,-2.2877,-2.2855,-2.284,-2.2828,-2.2801,-2.2799,-2.2773,-2.2768,-2.2756,-2.2749,-2.2736,-2.2737,-2.2734,-2.2706,-2.2744,-2.2808,-2.2813,-2.2732,-2.2732,-2.2731,0,-2.2991,-2.2975,-2.2977,-2.2969,-2.2935,-2.2936,-2.2922,-2.2899,-2.2892,-2.2876,-2.2871,-2.2855,-2.2847,-2.2835,-2.2804,-2.2788,-2.2802,-2.2774,-2.2789,-2.279,-2.2793,-2.2793,-2.2856,-2.279,-2.279,-2.279,-2.279,0,-2.3037,-2.3043,-2.3001,-2.3002,-2.3007,-2.2973,-2.2979,-2.2961,-2.2941,-2.2937,-2.2904,-2.2901,-2.2861,-2.2853,-2.2829,-2.2828,-2.2825,-2.2812,-2.2805,-2.2815,-2.2816,-2.2809,-2.2805,-2.2791,-2.2791,-2.2791,-2.2791,0,-2.3098,-2.307,-2.307,-2.3038,-2.303,-2.3035,-2.3007,-2.3006,-2.2985,-2.2981,-2.2977,-2.2943,-2.2932,-2.2901,-2.2882,-2.2866,-2.2871,-2.286,-2.2879,-2.2875,-2.2891,-2.289,-2.295,-2.2956,-2.2888,-2.2889,-2.289,0,-2.3129,-2.3132,-2.3101,-2.3097,-2.3084,-2.3077,-2.307,-2.3037,-2.303,-2.3005,-2.3007,-2.2994,-2.2981,-2.2965,-2.2938,-2.2923,-2.291,-2.2932,-2.2907,-2.2916,-2.2909,-2.2909,-2.2908,-2.2937,-2.2938,-2.2939,-2.294,0,-2.3186,-2.3172,-2.3162,-2.3148,-2.314,-2.3127,-2.3112,-2.311,-2.3073,-2.3067,-2.3056,-2.3046,-2.3027,-2.3014,-2.2994,-2.2978,-2.2952,-2.2948,-2.295,-2.2959,-2.297,-2.2964,-2.2893,-2.2946,-2.2946,-2.2945,-2.2945,-2.2945,-2.3231,-2.3233,-2.3211,-2.3202,-2.3187,-2.3174,-2.3172,-2.315,-2.3141,-2.3123,-2.3104,-2.3095,-2.3073,-2.3044,-2.303,-2.3022,-2.3008,-2.3012,-2.3012,-2.3014,-2.3018,-2.2972,-2.3018,-2.3018,-2.3017,-2.3017,-2.3017,0,-2.3286,-2.3271,-2.3262,-2.3243,-2.3235,-2.3213,-2.3195,-2.319,-2.3183,-2.3165,-2.3153,-2.314,-2.3127,-2.3099,-2.3083,-2.3082,-2.307,-2.3079,-2.3078,-2.3074,-2.3031,-2.303,-2.3089,-2.3089,-2.3089,-2.3089,-2.3089,-2.3089,-2.3314,-2.3314,-2.3298,-2.3291,-2.3275,-2.3267,-2.3259,-2.3246,-2.3231,-2.3219,-2.3208,-2.319,-2.3168,-2.315,-2.3137,-2.3129,-2.3124,-2.3137,-2.3125,-2.3084,-2.3078,-2.3071,-2.307,-2.3136,-2.3136,-2.3169,-2.3169,-2.3169]}]]